Asahikawa Airport
RJEC : now visible

Airfield :











YOU CAN JOIN US ON...

 
LOGIN :

Register | Disclaimer

   EN    FR    IT 

 









Legend :    VFR   Marginal VFR   IFR   Intensive IFR   Very Intensive IFR
Visi :
Ceiling :
>= 8 km
>= 3000ft
5 to 8 km
1000 to 3000 ft
1500m to 5 km
500 to 1000 ft
800 to 1500m
200 to 500 ft
< 800m
< 200 ft
Symbols :   Thunderstorms  Fog  Heavy snow  Heavy precipitations  Wind > 20 kt






- Airport Elevation : 721 ft
- IATA code : AKJ


RJEC - Asahikawa

CURRENT METAR :
  • 310700Z 31011KT 9999 FEW040 25/11 Q1013

EXPIRED METARs :
  • 310600Z 35004KT 300V030 9999 FEW040 26/10 Q1013
  • 310500Z 33006KT 260V020 9999 FEW030 26/09 Q1014

TAF TAF RJEC
Valid from the 31 at 06:00 until the 01 at 12:00 UTC


310508Z 3106/0112 30007KT 9999 FEW007 SCT015
BECMG 3110/3112 17007KT
RJJJ FIR / Asia



MET'MAP, your aeronautical weather chart ! - Copyright ORBIFLY December 2007 - Disclaimer

ORBIFLY MET'MAP TEAM :

Programming & Development : Alexandra Zaïnal
Concept & original design : Baudouin d'Aumeries
Assistance for programming : Marc-Olivier Méhu
Technical & hardware support : Manuel Goepfert

Contact : metmap@orbifly.com




SOURCES & CREDITS :

   NOAA       Earth
Advisory